Preview of NWS' New Version of Forecast
This preview is not operational and should not be used for support decisions.

Regional Weather Roundup (RWR)

Issued by National Weather Service (NWS)

                            
000
ASUS43 KTOP 200359
RWRKS 

WEATHER ROUNDUP FOR KANSAS
NATIONAL WEATHER SERVICE GOODLAND KS
1000 PM CST TUE FEB 19 2019

NOTE:  "FAIR" INDICATES FEW OR NO CLOUDS BELOW 12,000 FEET WITH NO
SIGNIFICANT WEATHER AND/OR OBSTRUCTIONS TO VISIBILITY.

KSZ001>006-013>018-027>032-041>047-200500-
NORTHWEST KANSAS
  
CITY           SKY/WX    TMP DP  RH WIND       PRES   REMARKS
GOODLAND       LGT SNOW N/A N/A N/A SE5       29.80F                  
HAYS           LGT SNOW  23  22  96 E7        29.89F FOG              
HILL CITY      LGT SNOW  21  20  96 E6        29.89F FOG              
RUSSELL        CLOUDY    23  23 100 NE7       29.88F FOG              
$$

KSZ061>065-074>080-084>089-200500-
SOUTHWEST KANSAS
  
CITY           SKY/WX    TMP DP  RH WIND       PRES   REMARKS
DODGE CITY     CLOUDY    23  20  88 SE8       29.84F FOG              
ELKHART        CLOUDY    24  23  95 S13       29.78R WCI  12          
GARDEN CITY    CLOUDY    22  20  92 S8        29.83F FOG              
GREAT BEND     CLOUDY    24  22  91 E9        29.90F                  
LIBERAL        LGT SNOW  23  21  92 S8        29.85F FOG              
$$

KSZ066>073-081>083-090>101-200500-
SOUTHEAST KANSAS
  
CITY           SKY/WX    TMP DP  RH WIND       PRES   REMARKS
CHANUTE        CLOUDY    31  28  89 NE7       29.96F FOG              
COFFEYVILLE    CLOUDY    32  31  96 NE9       29.93F FOG              
HUTCHINSON     CLOUDY    27  26  96 E9        29.91S                  
MEDICINE LODGE   N/A     26  24  92 CALM      29.91F                  
NEWTON         FLURRIES  25  24  96 E14       29.90F WCI  13          
PARSONS        FRZ RAIN  31  30  96 VRB6      29.94F FOG              
WICHITA INTL   FLURRIES  29  27  92 E12       29.91F WCI  19          
WICHITA JABRA  CLOUDY    27  24  89 E12       29.91F WCI  17          
WICHITA MCCONL CLOUDY    28  26  96 E9        29.90F                  
WINFIELD       CLOUDY    29  28  96 E5        29.93F FOG              
$$

KSZ007>012-019>026-033>040-048>060-102>105-200500-
NORTHEAST KANSAS
  
CITY           SKY/WX    TMP DP  RH WIND       PRES   REMARKS
CONCORDIA      CLOUDY    23  22  96 E6        29.94F FOG              
EMPORIA        LGT SNOW  27  25  93 E14       29.94F VSB 3/4 WCI  15  
LAWRENCE       SNOW      27  25  92 NW6       30.05R VSB 1/2          
MANHATTAN      LGT SNOW  27  24  89 E12       29.96F FOG     WCI  17  
OLATHE IND     LGT SNOW  28  27  96 E7        30.02R FOG              
OLATHE EXE     LGT SNOW  27  25  92 E9        30.00S FOG              
SALINA         CLOUDY    26  25  96 E6        29.94F                  
TOPEKA BILLARD LGT SNOW  27  24  89 E12       30.02F VSB 3/4 WCI  17  
TOPEKA FORBES  LGT SNOW  27  24  89 E14G24    30.00F VSB 3/4 WCI  16  
$$